Weather History for Kahului, HI

Change the Weather History Date:

Sunday, October 9, 2011

  Actual Average Record
Temperature  
Mean Temperature 79 °F 79 °F  
Max Temperature 85 °F 87 °F 93 °F (1984)
Min Temperature 72 °F 70 °F 60 °F (1953)
Degree Days  
Heating Degree Days 0 0  
Month to date heating degree days 0 0  
Since 1 July heating degree days 0 0  
Cooling Degree Days 14 14  
Month to date cooling degree days 118 126  
Year to date cooling degree days 3118 3094  
Growing Degree Days 28 (Base 50)    
Moisture  
Dew Point 66 °F    
Average Humidity 68    
Maximum Humidity 84    
Minimum Humidity 51    
Precipitation  
Precipitation T in 0.04 in 0.90 in (1989)
Month to date precipitation 0.01 0.26  
Year to date precipitation 10.44 11.34  
Snow  
Snow 0.00 in - - ()
Month to date snowfall 0.0  
Since 1 July snowfall 0.0  
Since 1 September snowfall 0.0  
Snow Depth 0.00 in    
Sea Level Pressure  
Sea Level Pressure 30.12 in    
Wind  
Wind Speed 17 mph (NE)    
Max Wind Speed 31 mph    
Max Gust Speed 40 mph    
Visibility 10 miles    
Events      
T = Trace of Precipitation, MM = Missing Value Source: NWS Daily Summary

Daily Weather History Graph

Daily Weather History Graph

Search for Another Location

Airport:

Trip Planner

Search our weather history database for the weather conditions in past years. The results will help you decide how hot, cold, wet, or windy it might be!

Date:

Astronomy

Oct. 09, 2011 Rise Set
Actual Time 6:19 AM HST 6:06 PM HST
Civil Twilight 5:56 AM HST 6:28 PM HST
Nautical Twilight 5:31 AM HST 6:54 PM HST
Astronomical Twilight 5:05 AM HST 7:20 PM HST
Moon 4:41 PM HST (10/9) 4:24 AM HST (10/9)
Length of Visible Light 12h 31m
Length of Day
11h 47m
Waxing Gibbous, 96% of the Moon is Illuminated
Oct 9
Waxing Gibbous
Oct 11
Full
Oct 19
Last Quarter
Oct 26
New
Nov 2
First Quarter

Hourly Weather History & Observations

Time (HST) Temp. Heat Index Dew Point Humidity Pressure Visibility Wind Dir Wind Speed Gust Speed Precip Events Conditions
12:54 AM 73.0 °F - 68.0 °F 84% 30.14 in 10.0 mi NE 15.0 mph - 0.00 in   Clear
1:54 AM 73.0 °F - 66.9 °F 81% 30.12 in 10.0 mi NE 12.7 mph - N/A   Clear
2:54 AM 73.9 °F - 66.0 °F 76% 30.11 in 10.0 mi NE 12.7 mph - N/A   Clear
3:54 AM 73.0 °F - 66.9 °F 81% 30.11 in 10.0 mi NE 11.5 mph - N/A   Clear
4:54 AM 73.9 °F - 66.9 °F 79% 30.11 in 10.0 mi NE 13.8 mph - N/A   Clear
5:54 AM 73.9 °F - 66.0 °F 76% 30.12 in 10.0 mi NE 13.8 mph - N/A   Partly Cloudy
6:54 AM 73.9 °F - 66.0 °F 76% 30.13 in 10.0 mi ENE 13.8 mph - 0.00 in   Scattered Clouds
7:54 AM 77.0 °F - 66.0 °F 69% 30.13 in 10.0 mi NE 17.3 mph 24.2 mph N/A   Partly Cloudy
8:54 AM 79.0 °F - 66.9 °F 66% 30.16 in 10.0 mi ENE 18.4 mph 28.8 mph N/A   Scattered Clouds
9:54 AM 80.1 °F 82.7 °F 68.0 °F 67% 30.16 in 10.0 mi ENE 17.3 mph 24.2 mph N/A   Scattered Clouds
10:54 AM 81.0 °F 83.3 °F 66.9 °F 62% 30.14 in 10.0 mi ENE 19.6 mph 28.8 mph N/A   Scattered Clouds
11:54 AM 82.0 °F 84.1 °F 66.0 °F 58% 30.11 in 10.0 mi NE 20.7 mph 31.1 mph N/A   Partly Cloudy
12:54 PM 84.0 °F 85.8 °F 64.9 °F 53% 30.10 in 10.0 mi ENE 23.0 mph 32.2 mph N/A   Partly Cloudy
1:54 PM 84.0 °F 85.4 °F 64.0 °F 51% 30.08 in 10.0 mi NE 24.2 mph 32.2 mph N/A   Partly Cloudy
2:54 PM 82.9 °F 84.4 °F 64.0 °F 53% 30.06 in 10.0 mi NE 24.2 mph 38.0 mph N/A   Scattered Clouds
3:54 PM 82.0 °F 83.1 °F 63.0 °F 52% 30.07 in 10.0 mi ENE 18.4 mph 33.4 mph N/A   Partly Cloudy
4:54 PM 81.0 °F 82.5 °F 64.0 °F 56% 30.08 in 10.0 mi ENE 13.8 mph 27.6 mph N/A   Partly Cloudy
5:54 PM 78.1 °F - 64.0 °F 62% 30.09 in 10.0 mi NE 16.1 mph 28.8 mph N/A   Partly Cloudy
6:54 PM 75.9 °F - 64.0 °F 67% 30.12 in 10.0 mi NE 15.0 mph - N/A   Clear
7:54 PM 75.9 °F - 64.9 °F 69% 30.15 in 10.0 mi NE 11.5 mph - N/A   Clear
8:54 PM 75.9 °F - 66.0 °F 71% 30.16 in 10.0 mi NE 10.4 mph - N/A   Clear
9:54 PM 75.9 °F - 64.9 °F 69% 30.16 in 10.0 mi NE 15.0 mph - N/A   Clear
10:54 PM 73.9 °F - 66.0 °F 76% 30.16 in 10.0 mi NE 12.7 mph - 0.00 in   Clear
11:54 PM 73.9 °F - 64.9 °F 73% 30.14 in 10.0 mi NE 15.0 mph 20.7 mph N/A   Clear